ALCOMSAT 1 (43039 NORAD) Tracking and Keplerian Element Data

This shows tracking and keplerian element data for the satellite.

Feedback or suggestion? Click here.




ElementValue
Catalog43039
NameALCOMSAT 1
Epoch Orbit478
Epoch Day80.86490628
Epoch Year2019
RAAN289.366
Inclination0.0175
Eccentricity0.0002724
Argument of Perigee117.6395
Mean Anonmoly58.6383
Mean Motion1.00272638
Decay Rate-2.11E-06
L11 43039U 17078A 19080.86490628 -.00000211 00000-0 00000-0 0 9998
L22 43039 0.0175 289.3660 0002724 117.6395 58.6383 1.00272638 4786

Live tracking and technical data element details for ALCOMSAT 1 (NORAD 43039). ALCOMSAT 1 can be tracked NOW for your location showing map with azimuth and elevation plus other details from your city location.

Track the satellite on the map from your city or location and see movement details for azimuth, elevation, latitude, longitude, range, height, and movement on the map or in text.







IsCatalogInMostPopularTable: catalog: 43039, numindb: 198
Update: records affected: 1



GetName: 43039 ALCOMSAT 1

Hit Count: updated at: Sat, 23 Mar 2019 02:22:38 GMT